Hourly Weather Rudnyk

Today, 22 April, Thursday

Time Temperature Precipitation Wind Pressure Humidity
00:00 +9°C° 0 mm 2 mps 752 mmHg 71%
01:00 +8°C° 0 mm 2 mps 752 mmHg 71%
02:00 +9°C° 0 mm 1 mps 752 mmHg 71%
03:00 +9°C° 0 mm 1 mps 752 mmHg 72%
04:00 +8°C° 0 mm 1 mps 752 mmHg 73%
05:00 +8°C° 0 mm 1 mps 753 mmHg 74%
06:00 +9°C° 0 mm 2 mps 753 mmHg 70%
07:00 +10°C° 0 mm 2 mps 753 mmHg 67%
08:00 +13°C° 0 mm 2 mps 753 mmHg 63%
09:00 +13°C° 0 mm 3 mps 753 mmHg 58%
10:00 +16°C° 0 mm 3 mps 753 mmHg 53%
11:00 +17°C° 0 mm 4 mps 753 mmHg 48%
12:00 +18°C° 0 mm 4 mps 753 mmHg 45%
13:00 +18°C° 0 mm 4 mps 753 mmHg 43%
14:00 +19°C° 0 mm 4 mps 752 mmHg 40%
15:00 +19°C° 0 mm 4 mps 752 mmHg 41%
16:00 +19°C° 0 mm 4 mps 752 mmHg 42%
17:00 +18°C° 0 mm 4 mps 751 mmHg 43%
18:00 +17°C° 0.1 mm 3 mps 751 mmHg 50%
19:00 +14°C° 0.1 mm 3 mps 751 mmHg 57%
20:00 +13°C° 0.1 mm 2 mps 751 mmHg 64%
21:00 +13°C° 0.5 mm 2 mps 751 mmHg 69%
22:00 +12°C° 0.5 mm 1 mps 751 mmHg 73%
23:00 +12°C° 0.5 mm 1 mps 751 mmHg 78%

Tomorrow, 23 April, Friday

Time Temperature Precipitation Wind Pressure Humidity
00:00 +10°C° 0.2 mm 2 mps 751 mmHg 81%
01:00 +9°C° 0.2 mm 2 mps 751 mmHg 85%
02:00 +9°C° 0.2 mm 2 mps 751 mmHg 88%
03:00 +8°C° 0 mm 3 mps 752 mmHg 90%
04:00 +7°C° 0 mm 3 mps 752 mmHg 91%
05:00 +5°C° 0 mm 4 mps 752 mmHg 92%
06:00 +6°C° 0 mm 4 mps 753 mmHg 87%
07:00 +6°C° 0 mm 4 mps 753 mmHg 82%
08:00 +7°C° 0 mm 5 mps 753 mmHg 77%
09:00 +6°C° 0.1 mm 4 mps 754 mmHg 78%
10:00 +6°C° 0.1 mm 4 mps 754 mmHg 80%
11:00 +6°C° 0.1 mm 4 mps 754 mmHg 82%
12:00 +7°C° 0.7 mm 3 mps 754 mmHg 80%
13:00 +7°C° 0.7 mm 3 mps 754 mmHg 78%
14:00 +8°C° 0.7 mm 3 mps 754 mmHg 76%
15:00 +8°C° 0.1 mm 3 mps 754 mmHg 70%
16:00 +9°C° 0.1 mm 2 mps 753 mmHg 65%
17:00 +10°C° 0.1 mm 2 mps 753 mmHg 59%
18:00 +9°C° 0 mm 2 mps 754 mmHg 63%
19:00 +8°C° 0 mm 2 mps 754 mmHg 67%
20:00 +7°C° 0 mm 2 mps 754 mmHg 71%
21:00 +6°C° 0 mm 2 mps 754 mmHg 72%
22:00 +5°C° 0 mm 2 mps 754 mmHg 73%
23:00 +5°C° 0 mm 2 mps 755 mmHg 74%

Day after tomorrow, 24 April, Saturday

Time Temperature Precipitation Wind Pressure Humidity
00:00 +4°C° 0 mm 2 mps 755 mmHg 76%
01:00 +3°C° 0 mm 3 mps 755 mmHg 79%
02:00 +3°C° 0 mm 3 mps 754 mmHg 82%
03:00 +3°C° 0 mm 4 mps 754 mmHg 82%
04:00 +3°C° 0 mm 4 mps 755 mmHg 83%
05:00 +2°C° 0 mm 5 mps 755 mmHg 83%
06:00 +2°C° 0 mm 6 mps 755 mmHg 76%
07:00 +3°C° 0 mm 7 mps 756 mmHg 69%
08:00 +2°C° 0 mm 8 mps 756 mmHg 61%
09:00 +4°C° 0 mm 8 mps 756 mmHg 54%
10:00 +5°C° 0 mm 8 mps 756 mmHg 46%
11:00 +6°C° 0 mm 8 mps 757 mmHg 39%
12:00 +7°C° 0 mm 8 mps 757 mmHg 38%
13:00 +8°C° 0 mm 7 mps 756 mmHg 38%
14:00 +8°C° 0 mm 7 mps 756 mmHg 38%
15:00 +8°C° 0 mm 7 mps 756 mmHg 39%
16:00 +8°C° 0 mm 6 mps 756 mmHg 41%
17:00 +8°C° 0 mm 6 mps 756 mmHg 42%
18:00 +7°C° 0 mm 4 mps 756 mmHg 48%
19:00 +7°C° 0 mm 3 mps 757 mmHg 53%
20:00 +7°C° 0 mm 1 mps 757 mmHg 59%
21:00 +6°C° 0 mm 1 mps 757 mmHg 60%
22:00 +6°C° 0 mm 1 mps 757 mmHg 61%
23:00 +6°C° 0 mm 1 mps 757 mmHg 61%

25 April, Sunday

Time Temperature Precipitation Wind Pressure Humidity
00:00 +6°C° 0 mm 1 mps 757 mmHg 61%
01:00 +5°C° 0 mm 2 mps 757 mmHg 61%
02:00 +5°C° 0 mm 2 mps 757 mmHg 62%
03:00 +4°C° 0 mm 2 mps 756 mmHg 61%
04:00 +4°C° 0 mm 2 mps 756 mmHg 61%
05:00 +4°C° 0 mm 2 mps 756 mmHg 61%
06:00 +4°C° 0 mm 3 mps 755 mmHg 57%
07:00 +7°C° 0 mm 3 mps 755 mmHg 53%
08:00 +7°C° 0 mm 4 mps 755 mmHg 49%
09:00 +10°C° 0 mm 4 mps 755 mmHg 51%
10:00 +11°C° 0 mm 4 mps 754 mmHg 52%
11:00 +12°C° 0 mm 5 mps 754 mmHg 54%
12:00 +12°C° 0 mm 5 mps 754 mmHg 54%
13:00 +12°C° 0 mm 5 mps 754 mmHg 53%
14:00 +12°C° 0 mm 5 mps 754 mmHg 53%
15:00 +10°C° 0 mm 5 mps 754 mmHg 55%
16:00 +10°C° 0 mm 5 mps 754 mmHg 57%
17:00 +9°C° 0 mm 5 mps 754 mmHg 58%
18:00 +8°C° 0 mm 5 mps 754 mmHg 59%
19:00 +7°C° 0 mm 4 mps 755 mmHg 59%
20:00 +6°C° 0 mm 4 mps 755 mmHg 59%
21:00 +5°C° 0 mm 3 mps 756 mmHg 61%
22:00 +4°C° 0 mm 3 mps 756 mmHg 63%
23:00 +4°C° 0 mm 2 mps 756 mmHg 66%

26 April, Monday

Time Temperature Precipitation Wind Pressure Humidity
00:00 +4°C° 0 mm 2 mps 756 mmHg 67%
01:00 +3°C° 0 mm 2 mps 756 mmHg 68%
02:00 +2°C° 0 mm 2 mps 756 mmHg 70%
03:00 +2°C° 0 mm 2 mps 755 mmHg 71%
04:00 +2°C° 0 mm 2 mps 755 mmHg 71%
05:00 +1°C° 0 mm 2 mps 755 mmHg 72%
06:00 +2°C° 0 mm 3 mps 755 mmHg 67%
07:00 +4°C° 0 mm 4 mps 755 mmHg 62%
08:00 +5°C° 0 mm 5 mps 755 mmHg 57%
09:00 +5°C° 0 mm 6 mps 755 mmHg 52%
10:00 +7°C° 0 mm 6 mps 755 mmHg 46%
11:00 +9°C° 0 mm 7 mps 755 mmHg 41%
12:00 +9°C° 0 mm 7 mps 755 mmHg 40%
13:00 +9°C° 0 mm 7 mps 755 mmHg 39%
14:00 +9°C° 0 mm 7 mps 754 mmHg 38%
15:00 +9°C° 0 mm 7 mps 754 mmHg 38%
16:00 +9°C° 0 mm 6 mps 754 mmHg 38%
17:00 +9°C° 0 mm 5 mps 754 mmHg 37%
18:00 +8°C° 0 mm 4 mps 754 mmHg 42%
19:00 +7°C° 0 mm 3 mps 755 mmHg 46%
20:00 +6°C° 0 mm 2 mps 755 mmHg 50%
21:00 +7°C° 0 mm 1 mps 755 mmHg 50%
22:00 +7°C° 0 mm 1 mps 755 mmHg 50%
23:00 +7°C° 0 mm 1 mps 755 mmHg 50%

27 April, Tuesday

Time Temperature Precipitation Wind Pressure Humidity
00:00 +6°C° 0 mm 1 mps 755 mmHg 53%
01:00 +6°C° 0 mm 1 mps 755 mmHg 55%
02:00 +5°C° 0 mm 1 mps 755 mmHg 57%
03:00 +5°C° 0 mm 1 mps 755 mmHg 59%
04:00 +4°C° 0 mm 1 mps 755 mmHg 61%
05:00 +4°C° 0 mm 1 mps 755 mmHg 63%
06:00 +5°C° 0 mm 1 mps 755 mmHg 60%
07:00 +6°C° 0 mm 2 mps 755 mmHg 58%
08:00 +8°C° 0 mm 3 mps 755 mmHg 55%
09:00 +9°C° 0 mm 3 mps 755 mmHg 52%
10:00 +10°C° 0 mm 3 mps 755 mmHg 49%
11:00 +11°C° 0 mm 4 mps 754 mmHg 46%
12:00 +12°C° 0 mm 5 mps 753 mmHg 45%
13:00 +13°C° 0 mm 6 mps 753 mmHg 44%
14:00 +14°C° 0 mm 6 mps 752 mmHg 43%
15:00 +14°C° 0 mm 7 mps 751 mmHg 49%
16:00 +12°C° 0 mm 7 mps 751 mmHg 54%
17:00 +12°C° 0 mm 7 mps 750 mmHg 60%
18:00 +11°C° 0 mm 7 mps 750 mmHg 67%
19:00 +10°C° 0 mm 7 mps 750 mmHg 75%
20:00 +9°C° 0 mm 8 mps 749 mmHg 82%
21:00 +7°C° 0.6 mm 8 mps 749 mmHg 84%
22:00 +7°C° 0.6 mm 8 mps 748 mmHg 87%
23:00 +6°C° 0.6 mm 8 mps 748 mmHg 90%
Show more